Ketchikan, AK

4:28 PM AKST on February 20, 2019 (GMT -0900)
Ketchikan International

Weather History for PAKT - January, 2019

Change the Weather History Date:

Thursday, January 10, 2019

  Actual Average Record
Temperature  
Mean Temperature 40 °F -  
Max Temperature 45 °F 36 °F 50 °F (1967)
Min Temperature 36 °F 23 °F 0 °F (1998)
Degree Days  
Heating Degree Days 24    
Moisture  
Dew Point 40 °F    
Average Humidity 91    
Maximum Humidity 100    
Minimum Humidity 85    
Precipitation  
Precipitation 2.85 in - - ()
Sea Level Pressure  
Sea Level Pressure 29.51 in    
Wind  
Wind Speed 10 mph (SSE)    
Max Wind Speed 22 mph    
Max Gust Speed 36 mph    
Visibility 4 miles    
Events Rain    
Averages and records for this station are not official NWS values.
T = Trace of Precipitation, MM = Missing Value Source: NWS Daily Summary

Daily Weather History Graph

Daily Weather History Graph

Search for Another Location

Airport or City:

Astronomy

Jan. 10, 2019 Rise Set
Actual Time 8:09 AM AKST 3:40 PM AKST
Civil Twilight 7:24 AM AKST 4:24 PM AKST
Nautical Twilight 6:37 AM AKST 5:11 PM AKST
Astronomical Twilight 5:53 AM AKST 5:55 PM AKST
Moon 10:28 AM AKST (1/10) 8:48 PM AKST (1/10)
Length of Visible Light 8h 59m
Length of Day
7h 30m
Waxing Crescent, 19% of the Moon is Illuminated
Jan 10
Waxing Crescent
Jan 13
First Quarter
Jan 20
Full
Jan 27
Last Quarter
Feb 4
New

Hourly Weather History & Observations

Time (AKST) Temp. Windchill Dew Point Humidity Pressure Visibility Wind Dir Wind Speed Gust Speed Precip Events Conditions
12:53 AM 36.0 °F - 36.0 °F 100% 29.36 in 7.0 mi Calm Calm - 0.04 in Rain Light Rain
1:53 AM 37.0 °F 34.5 °F 35.1 °F 93% 29.39 in 9.0 mi SE 3.5 mph - 0.03 in Rain Light Rain
2:53 AM 37.0 °F 32.4 °F 35.1 °F 93% 29.42 in 8.0 mi SE 5.8 mph - 0.06 in Rain Light Rain
3:53 AM 37.0 °F 31.6 °F 36.0 °F 96% 29.44 in 4.0 mi South 6.9 mph - 0.02 in Rain Light Rain
4:53 AM 37.0 °F 33.3 °F 36.0 °F 96% 29.47 in 3.0 mi Variable 4.6 mph - 0.05 in Rain Light Rain
5:38 AM 37.9 °F 32.7 °F 36.0 °F 93% 29.48 in 2.5 mi South 6.9 mph - 0.05 in Rain Rain
5:53 AM 37.9 °F 32.7 °F 36.0 °F 93% 29.49 in 4.0 mi South 6.9 mph - 0.07 in Rain Light Rain
6:02 AM 37.4 °F 32.1 °F 35.6 °F 93% 29.49 in 3.0 mi South 6.9 mph - N/A Rain Rain
6:53 AM 39.2 °F 32.5 °F 37.4 °F 93% 29.52 in 3.0 mi South 10.4 mph - N/A Rain Rain
7:53 AM 41.0 °F 34.3 °F 39.2 °F 93% 29.55 in 4.0 mi SSE 11.5 mph 20.7 mph N/A Rain Rain
8:17 AM 42.8 °F 36.2 °F 39.2 °F 87% 29.56 in 10.0 mi SSE 12.7 mph 20.7 mph N/A Rain Light Rain
8:53 AM 42.8 °F 35.1 °F 39.2 °F 87% 29.58 in 10.0 mi SE 16.1 mph - N/A   Overcast
9:53 AM 44.6 °F 36.9 °F 41.0 °F 87% 29.61 in 6.0 mi SE 18.4 mph 26.5 mph N/A   Overcast
10:53 AM 42.8 °F 35.4 °F 41.0 °F 93% 29.63 in 4.0 mi SE 15.0 mph - N/A Rain Light Rain
11:53 AM 42.8 °F 35.1 °F 39.2 °F 87% 29.62 in 3.0 mi SE 16.1 mph - N/A Rain Rain
12:50 PM 42.8 °F 35.1 °F 39.2 °F 87% 29.61 in 2.5 mi SE 16.1 mph - N/A Rain Rain
12:53 PM 42.8 °F 35.4 °F 41.0 °F 93% 29.61 in 3.0 mi SE 15.0 mph - N/A Rain Rain
1:53 PM 42.8 °F 35.8 °F 39.2 °F 87% 29.58 in 3.0 mi SSE 13.8 mph 21.9 mph N/A Rain Rain
2:53 PM 42.8 °F 34.5 °F 39.2 °F 87% 29.57 in 3.0 mi SE 18.4 mph 25.3 mph N/A Rain Rain
3:53 PM 42.8 °F 35.1 °F 39.2 °F 87% 29.53 in 3.0 mi SSE 16.1 mph - N/A Rain Rain
4:53 PM 43.0 °F 35.1 °F 39.0 °F 86% 29.50 in 3.0 mi SSE 17.3 mph 31.1 mph 0.21 in Rain Rain
5:53 PM 43.0 °F 34.8 °F 39.9 °F 89% 29.48 in 3.0 mi SSE 18.4 mph 26.5 mph 0.33 in Rain Heavy Rain
6:53 PM 44.1 °F 36.2 °F 39.9 °F 85% 29.47 in 3.0 mi SSE 18.4 mph 25.3 mph 0.33 in Rain Heavy Rain
7:53 PM 43.0 °F 35.7 °F 42.1 °F 97% 29.47 in 3.0 mi SSE 15.0 mph 21.9 mph 0.47 in Rain Heavy Rain
8:53 PM 45.0 °F 37.6 °F 42.1 °F 90% 29.47 in 2.5 mi SSE 17.3 mph 25.3 mph 0.35 in Rain Heavy Rain
8:54 PM 45.0 °F 37.1 °F 42.1 °F 90% 29.47 in 3.0 mi SSE 19.6 mph 26.5 mph 0.01 in Rain Heavy Rain
9:32 PM 45.0 °F 37.9 °F 43.0 °F 93% 29.48 in 2.0 mi SSE 16.1 mph 29.9 mph 0.20 in Rain Rain
9:53 PM 45.0 °F 36.6 °F 42.1 °F 90% 29.49 in 2.0 mi SE 21.9 mph 35.7 mph 0.27 in Rain Rain
10:19 PM 45.0 °F 37.9 °F 43.0 °F 93% 29.48 in 1.8 mi SE 16.1 mph 32.2 mph 0.13 in Rain Heavy Rain
10:31 PM 44.1 °F 37.7 °F 43.0 °F 96% 29.49 in 2.5 mi SSE 12.7 mph - 0.19 in Rain Rain
10:50 PM 44.6 °F 36.4 °F 42.8 °F 93% 29.50 in 1.5 mi SE 20.7 mph - 0.30 in Rain Heavy Rain
10:53 PM 45.0 °F 37.1 °F 43.0 °F 93% 29.50 in 1.5 mi SE 19.6 mph 26.5 mph 0.31 in Rain Heavy Rain
11:05 PM 45.0 °F 38.2 °F 43.0 °F 93% 29.49 in 2.0 mi SE 15.0 mph - 0.04 in Rain Rain
11:13 PM 45.0 °F 37.6 °F 43.0 °F 93% 29.50 in 1.5 mi SE 17.3 mph - 0.09 in Rain Heavy Rain
11:27 PM 45.0 °F 38.9 °F 43.0 °F 93% 29.50 in 2.0 mi SE 12.7 mph - 0.18 in Rain Heavy Rain
11:53 PM 45.0 °F 37.9 °F 43.0 °F 93% 29.51 in 2.5 mi SE 16.1 mph 21.9 mph 0.31 in Rain Rain